QPF
0.00 0.00 0.00 0.00 0.00 0.00 0.00 0.00 0.00 0.00 0.00 0.00 0.01 0.01 0.01 0.01 0.01 0.01 0.00 0.00 0.00 0.06 0.09 0.06 0.05 0.01 0.00 0.00 0.00 0.00 0.00 0.00 0.00 0.00 0.00 0.00 0.00 0.00 0.00 0.00 0.00 0.00 0.00
0.00 0.00 0.00 0.00 0.00 0.00 0.00 0.00 0.00 0.00 0.00 0.00 0.00 0.01 0.02 0.01 0.00 0.01 0.01 0.00 0.02 0.05 0.07 0.02 0.00 0.00 0.00 0.00 0.00 0.00 0.00 0.00 0.00 0.00 0.00 0.00 0.00 0.00 0.00 0.00 0.00 0.00 0.00
0.00 0.00 0.00 0.00 0.00 0.00 0.00 0.00 0.00 0.00 0.00 0.00 0.00 0.01 0.02 0.01 0.01 0.00 0.01 0.01 0.02 0.04 0.01 0.00 0.00 0.00 0.00 0.00 0.00 0.00 0.00 0.00 0.00 0.00 0.00 0.00 0.00 0.00 0.00 0.00 0.00 0.00 0.00
0.00 0.00 0.00 0.00 0.00 0.00 0.00 0.00 0.00 0.00 0.00 0.00 0.00 0.00 0.02 0.02 0.02 0.01 0.01 0.01 0.01 0.03 0.02 0.00 0.00 0.00 0.00 0.00 0.00 0.00 0.00 0.00 0.00 0.00 0.00 0.00 0.00 0.00 0.00 0.00 0.01 0.00 0.00
0.00 0.00 0.00 0.00 0.00 0.00 0.00 0.00 0.00 0.00 0.00 0.00 0.00 0.00 0.01 0.02 0.02 0.02 0.01 0.01 0.01 0.01 0.05 0.03 0.00 0.00 0.00 0.00 0.00 0.00 0.00 0.00 0.00 0.00 0.00 0.00 0.00 0.00 0.00 0.00 0.00 0.00 0.00
0.00 0.00 0.00 0.00 0.00 0.00 0.00 0.00 0.00 0.00 0.00 0.00 0.00 0.00 0.01 0.02 0.01 0.01 0.01 0.00 0.00 0.01 0.02 0.04 0.00 0.00 0.00 0.00 0.00 0.00 0.00 0.00 0.00 0.00 0.00 0.00 0.00 0.01 0.00 0.00 0.01 0.01 0.01
0.00 0.00 0.00 0.00 0.00 0.00 0.00 0.00 0.00 0.00 0.00 0.00 0.00 0.00 0.00 0.01 0.02 0.01 0.01 0.01 0.01 0.01 0.00 0.02 0.01 0.00 0.00 0.00 0.00 0.00 0.00 0.00 0.00 0.00 0.00 0.00 0.01 0.01 0.00 0.01 0.01 0.01 0.01
0.00 0.00 0.00 0.00 0.00 0.00 0.00 0.00 0.00 0.00 0.00 0.00 0.00 0.00 0.00 0.00 0.00 0.00 0.00 0.01 0.01 0.00 0.00 0.00 0.02 0.00 0.00 0.00 0.00 0.00 0.00 0.00 0.00 0.00 0.00 0.00 0.00 0.00 0.01 0.01 0.00 0.01 0.01
0.00 0.00 0.00 0.00 0.00 0.00 0.00 0.00 0.00 0.00 0.00 0.00 0.00 0.00 0.00 0.00 0.00 0.00 0.00 0.00 0.00 0.01 0.00 0.00 0.00 0.00 0.00 0.00 0.00 0.00 0.00 0.00 0.00 0.00 0.00 0.00 0.01 0.01 0.01 0.00 0.01 0.01 0.01
0.00 0.00 0.00 0.00 0.00 0.00 0.00 0.00 0.00 0.00 0.00 0.00 0.00 0.00 0.00 0.00 0.00 0.00 0.00 0.00 0.00 0.00 0.00 0.00 0.00 0.00 0.00 0.00 0.00 0.00 0.00 0.00 0.00 0.00 0.00 0.00 0.01 0.01 0.01 0.00 0.01 0.01 0.01
0.00 0.00 0.00 0.00 0.00 0.00 0.00 0.00 0.00 0.00 0.00 0.00 0.00 0.00 0.00 0.00 0.00 0.00 0.00 0.00 0.00 0.00 0.00 0.00 0.00 0.00 0.00 0.00 0.00 0.00 0.00 0.00 0.00 0.00 0.00 0.00 0.00 0.00 0.01 0.00 0.01 0.01 0.01
0.00 0.00 0.00 0.00 0.00 0.00 0.00 0.00 0.00 0.00 0.00 0.00 0.00 0.00 0.00 0.00 0.00 0.00 0.00 0.00 0.00 0.00 0.00 0.00 0.00 0.00 0.01 0.00 0.00 0.00 0.00 0.00 0.00 0.00 0.00 0.00 0.01 0.00 0.00 0.00 0.00 0.01 0.01
0.00 0.00 0.00 0.00 0.00 0.00 0.00 0.00 0.00 0.00 0.00 0.00 0.00 0.00 0.00 0.00 0.00 0.00 0.00 0.00 0.00 0.00 0.00 0.00 0.00 0.00 0.01 0.02 0.00 0.00 0.00 0.00 0.00 0.00 0.00 0.00 0.00 0.00 0.00 0.00 0.00 0.01 0.01
0.00 0.00 0.00 0.00 0.00 0.00 0.00 0.00 0.00 0.00 0.00 0.00 0.00 0.00 0.00 0.00 0.00 0.00 0.00 0.00 0.00 0.00 0.00 0.00 0.00 0.00 0.00 0.01 0.01 0.01 0.00 0.00 0.00 0.00 0.00 0.00 0.00 0.00 0.00 0.00 0.01 0.01 0.00
0.00 0.00 0.00 0.00 0.00 0.00 0.00 0.00 0.00 0.00 0.00 0.00 0.00 0.00 0.00 0.00 0.00 0.00 0.00 0.00 0.00 0.00 0.00 0.00 0.00 0.00 0.00 0.00 0.01 0.01 0.01 0.01 0.00 0.00 0.00 0.00 0.00 0.00 0.00 0.00 0.00 0.00 0.00
0.00 0.00 0.00 0.00 0.00 0.00 0.00 0.00 0.00 0.00 0.00 0.00 0.00 0.00 0.00 0.00 0.00 0.00 0.00 0.00 0.00 0.00 0.00 0.00 0.00 0.00 0.00 0.00 0.00 0.00 0.02 0.06 0.03 0.01 0.00 0.00 0.00 0.00 0.00 0.00 0.01 0.01 0.00
0.00 0.00 0.00 0.00 0.00 0.00 0.00 0.00 0.00 0.00 0.00 0.00 0.00 0.00 0.00 0.00 0.00 0.00 0.00 0.00 0.00 0.00 0.00 0.00 0.00 0.00 0.00 0.00 0.00 0.00 0.00 0.02 0.05 0.05 0.03 0.01 0.00 0.00 0.00 0.00 0.00 0.00 0.01
0.00 0.00 0.00 0.00 0.00 0.00 0.00 0.00 0.00 0.00 0.00 0.00 0.00 0.00 0.00 0.00 0.00 0.00 0.00 0.00 0.00 0.00 0.00 0.00 0.00 0.00 0.00 0.00 0.00 0.00 0.00 0.00 0.01 0.08 0.07 0.05 0.02 0.01 0.00 0.00 0.00 0.00 0.01
0.00 0.00 0.00 0.00 0.00 0.00 0.00 0.00 0.00 0.00 0.00 0.00 0.00 0.00 0.00 0.00 0.00 0.00 0.00 0.00 0.00 0.00 0.00 0.00 0.00 0.00 0.00 0.00 0.00 0.00 0.00 0.00 0.00 0.01 0.04 0.08 0.08 0.05 0.02 0.00 0.00 0.00 0.00
0.00 0.00 0.00 0.00 0.00 0.00 0.00 0.00 0.00 0.00 0.00 0.00 0.00 0.00 0.00 0.00 0.00 0.00 0.00 0.00 0.00 0.00 0.00 0.00 0.00 0.00 0.00 0.00 0.00 0.00 0.00 0.01 0.01 0.01 0.02 0.02 0.06 0.06 0.06 0.03 0.02 0.01 0.00
0.00 0.00 0.00 0.00 0.00 0.00 0.00 0.00 0.00 0.00 0.00 0.00 0.00 0.00 0.00 0.00 0.00 0.00 0.00 0.00 0.00 0.00 0.00 0.00 0.00 0.00 0.00 0.00 0.00 0.00 0.00 0.01 0.02 0.01 0.02 0.01 0.02 0.05 0.04 0.02 0.02 0.01 0.00
0.00 0.00 0.00 0.00 0.00 0.00 0.00 0.00 0.00 0.00 0.00 0.00 0.00 0.00 0.00 0.00 0.00 0.00 0.00 0.00 0.00 0.00 0.00 0.00 0.00 0.00 0.00 0.00 0.00 0.00 0.00 0.00 0.00 0.01 0.01 0.01 0.01 0.04 0.06 0.05 0.04 0.03 0.02
0.00 0.00 0.00 0.00 0.00 0.00 0.00 0.00 0.00 0.00 0.00 0.00 0.00 0.00 0.00 0.00 0.00 0.00 0.00 0.00 0.00 0.00 0.00 0.00 0.00 0.00 0.00 0.00 0.00 0.00 0.00 0.00 0.01 0.00 0.00 0.00 0.00 0.00 0.01 0.01 0.01 0.01 0.01
0.00 0.00 0.00 0.00 0.00 0.00 0.00 0.00 0.00 0.00 0.00 0.00 0.00 0.00 0.00 0.00 0.00 0.00 0.00 0.00 0.00 0.00 0.00 0.00 0.00 0.00 0.00 0.00 0.00 0.00 0.00 0.00 0.00 0.00 0.00 0.00 0.00 0.00 0.00 0.00 0.00 0.00 0.00
0.00 0.00 0.00 0.00 0.00 0.00 0.00 0.00 0.00 0.00 0.00 0.00 0.00 0.00 0.00 0.00 0.00 0.00 0.00 0.00 0.00 0.00 0.00 0.00 0.00 0.00 0.00 0.00 0.00 0.00 0.00 0.00 0.00 0.00 0.00 0.00 0.00 0.00 0.00 0.00 0.00 0.00 0.00
0.00 0.00 0.00 0.00 0.00 0.00 0.00 0.00 0.00 0.00 0.00 0.00 0.00 0.00 0.00 0.00 0.00 0.00 0.00 0.00 0.00 0.00 0.00 0.00 0.00 0.00 0.00 0.00 0.00 0.00 0.00 0.00 0.00 0.00 0.00 0.00 0.00 0.00 0.00 0.00 0.00 0.00 0.00
MSLP
1024.07 1024.20 1024.38 1024.09 1023.78 1023.45 1023.15 1022.80 1022.46 1022.10 1021.76 1021.36 1020.92 1020.41 1020.01 1019.70 1019.34 1019.01 1018.67 1018.35 1018.20 1018.43 1018.29 1018.47 1018.41 1018.42 1018.62 1018.69 1018.73 1018.73 1018.83 1018.80 1018.79 1018.68 1018.61 1018.76 1018.71 1018.64 1018.54 1018.48 1018.45 1018.36 1018.40
1024.26 1024.14 1024.46 1024.38 1024.15 1023.84 1023.51 1023.21 1022.87 1022.58 1022.25 1021.93 1021.55 1021.02 1020.45 1020.11 1019.88 1019.43 1019.05 1018.77 1018.64 1018.73 1018.74 1018.87 1018.99 1019.15 1019.13 1019.13 1019.24 1019.23 1019.11 1019.09 1019.27 1019.18 1019.06 1019.01 1019.17 1019.11 1019.13 1019.12 1019.05 1019.04 1019.03
1024.51 1024.59 1025.01 1024.73 1024.50 1024.32 1024.04 1023.60 1023.33 1023.12 1022.80 1022.39 1022.15 1021.60 1020.98 1020.64 1020.37 1020.01 1019.61 1019.31 1019.18 1019.10 1019.21 1019.28 1019.47 1019.50 1019.62 1019.56 1019.58 1019.48 1019.33 1019.23 1019.15 1019.03 1019.28 1019.25 1019.54 1019.49 1019.50 1019.62 1019.58 1019.56 1019.54
1024.81 1025.04 1025.41 1025.12 1024.83 1024.63 1024.31 1024.00 1023.76 1023.46 1023.27 1022.93 1022.67 1022.19 1021.61 1021.19 1020.87 1020.56 1020.15 1019.93 1019.66 1019.47 1019.47 1019.63 1019.78 1019.88 1019.90 1019.97 1019.92 1019.79 1019.65 1019.62 1019.51 1019.34 1019.58 1019.64 1019.80 1019.96 1019.94 1019.96 1020.00 1020.09 1020.06
1025.25 1025.41 1025.65 1025.40 1025.22 1024.98 1024.69 1024.41 1024.21 1023.94 1023.71 1023.48 1023.21 1022.85 1022.30 1021.85 1021.48 1021.04 1020.81 1020.51 1020.23 1019.97 1019.86 1019.88 1020.08 1020.14 1020.23 1020.25 1020.24 1020.13 1019.95 1019.81 1019.69 1019.79 1020.24 1020.40 1020.30 1020.21 1020.34 1020.41 1020.46 1020.49 1020.52
1025.51 1025.70 1025.82 1025.70 1025.57 1025.33 1025.14 1024.82 1024.68 1024.49 1024.17 1023.92 1023.71 1023.40 1023.05 1022.50 1022.10 1021.64 1021.28 1021.04 1020.81 1020.50 1020.30 1020.19 1020.31 1020.40 1020.48 1020.57 1020.58 1020.40 1020.11 1019.95 1019.91 1020.23 1020.50 1020.73 1020.60 1020.61 1020.76 1020.74 1020.81 1020.88 1020.88
1025.77 1025.82 1025.88 1025.85 1025.70 1025.59 1025.47 1025.29 1025.08 1024.80 1024.60 1024.36 1024.10 1023.92 1023.60 1023.17 1022.61 1022.26 1021.94 1021.59 1021.26 1020.94 1020.77 1020.57 1020.49 1020.58 1020.70 1020.79 1020.84 1020.65 1020.51 1020.49 1020.29 1020.64 1020.85 1021.05 1021.00 1020.93 1021.00 1021.18 1021.30 1021.34 1021.39
1025.95 1025.98 1026.05 1026.01 1025.91 1025.82 1025.80 1025.70 1025.48 1025.24 1024.91 1024.71 1024.56 1024.29 1024.02 1023.60 1023.28 1022.94 1022.61 1022.26 1021.82 1021.42 1021.23 1021.03 1020.91 1020.81 1020.91 1020.96 1020.98 1020.86 1020.73 1020.76 1020.51 1020.73 1021.08 1021.23 1021.26 1021.34 1021.36 1021.45 1021.67 1021.76 1021.78
1026.10 1026.19 1026.28 1026.27 1026.14 1026.02 1025.97 1026.02 1025.78 1025.59 1025.26 1025.02 1024.83 1024.63 1024.28 1024.03 1023.68 1023.60 1023.25 1022.78 1022.37 1021.97 1021.64 1021.46 1021.29 1021.14 1021.04 1021.16 1021.19 1021.11 1020.86 1020.86 1020.72 1020.94 1021.22 1021.37 1021.44 1021.65 1021.78 1021.92 1022.02 1022.08 1022.27
1026.23 1026.37 1026.50 1026.37 1026.39 1026.27 1026.20 1026.15 1025.92 1025.78 1025.46 1025.25 1025.17 1024.97 1024.74 1024.54 1024.21 1023.95 1023.68 1023.29 1022.82 1022.57 1022.21 1021.86 1021.65 1021.50 1021.24 1021.23 1021.32 1021.30 1021.10 1021.12 1021.18 1021.26 1021.49 1021.79 1021.73 1021.85 1022.10 1022.29 1022.39 1022.44 1022.57
1026.45 1026.60 1026.66 1026.70 1026.69 1026.43 1026.21 1026.25 1026.12 1026.01 1025.81 1025.68 1025.60 1025.40 1025.23 1025.04 1024.68 1024.22 1023.91 1023.59 1023.28 1022.83 1022.64 1022.36 1022.04 1021.87 1021.64 1021.47 1021.42 1021.40 1021.25 1021.27 1020.98 1021.56 1021.76 1021.96 1022.02 1022.18 1022.32 1022.68 1022.78 1022.91 1022.92
1026.50 1026.81 1026.85 1026.96 1026.96 1026.76 1026.51 1026.62 1026.53 1026.46 1026.34 1026.23 1026.10 1025.93 1025.47 1025.27 1025.02 1024.69 1024.44 1024.07 1023.70 1023.32 1022.93 1022.72 1022.54 1022.38 1022.13 1021.98 1021.78 1021.53 1021.47 1021.09 1021.19 1021.67 1022.00 1022.10 1022.25 1022.48 1022.63 1022.85 1023.02 1023.25 1023.43
1026.57 1026.84 1027.15 1027.21 1027.19 1027.20 1027.07 1026.92 1026.81 1026.81 1026.79 1026.69 1026.40 1026.30 1025.90 1025.66 1025.39 1025.19 1024.92 1024.55 1024.26 1023.91 1023.57 1023.14 1022.96 1022.81 1022.65 1022.41 1022.14 1021.91 1021.64 1021.16 1021.17 1021.68 1022.04 1022.26 1022.30 1022.57 1022.83 1023.06 1023.19 1023.37 1023.61
1026.61 1027.07 1027.33 1027.38 1027.39 1027.39 1027.29 1027.33 1027.12 1027.20 1027.28 1027.10 1026.84 1026.76 1026.52 1026.27 1025.95 1025.65 1025.39 1025.05 1024.78 1024.57 1024.22 1023.75 1023.36 1023.02 1022.82 1022.62 1022.37 1022.10 1021.86 1021.73 1021.78 1021.79 1022.19 1022.38 1022.54 1022.59 1022.93 1023.21 1023.42 1023.48 1023.62
1026.58 1027.09 1027.46 1027.48 1027.54 1027.52 1027.43 1027.49 1027.37 1027.57 1027.45 1027.35 1027.23 1027.03 1026.84 1026.71 1026.46 1026.04 1025.75 1025.60 1025.30 1025.04 1024.63 1024.20 1023.71 1023.31 1022.94 1022.85 1022.63 1022.44 1022.28 1022.27 1022.11 1022.13 1022.22 1022.45 1022.84 1022.88 1023.01 1023.22 1023.43 1023.58 1023.75
1026.28 1026.81 1027.21 1027.43 1027.54 1027.57 1027.73 1027.82 1027.93 1027.94 1027.77 1027.66 1027.53 1027.36 1027.25 1027.11 1026.86 1026.47 1026.29 1026.14 1025.88 1025.48 1025.04 1024.53 1024.04 1023.71 1023.25 1023.05 1022.80 1022.74 1022.77 1022.66 1022.68 1022.80 1022.59 1022.46 1022.91 1023.15 1023.33 1023.29 1023.53 1023.70 1023.90
1026.13 1026.68 1027.15 1027.48 1027.47 1027.64 1027.80 1027.99 1028.19 1028.12 1028.07 1028.06 1028.08 1027.84 1027.80 1027.50 1027.41 1027.01 1026.81 1026.69 1026.28 1025.73 1025.48 1025.00 1024.37 1024.10 1023.78 1023.34 1023.14 1023.07 1023.07 1023.13 1023.04 1022.89 1023.14 1022.92 1023.04 1023.15 1023.51 1023.58 1023.70 1023.79 1023.99
1025.80 1026.52 1026.93 1027.04 1027.56 1027.65 1027.87 1028.03 1028.23 1028.29 1028.31 1028.32 1028.27 1028.28 1028.18 1028.04 1027.76 1027.45 1027.22 1027.22 1026.71 1026.13 1025.94 1025.58 1025.08 1024.85 1024.55 1024.19 1023.76 1023.63 1023.51 1023.31 1023.45 1023.38 1023.46 1023.32 1023.64 1023.58 1023.51 1023.82 1024.04 1024.04 1024.17
1025.59 1026.34 1026.87 1027.31 1027.70 1027.84 1027.99 1028.23 1028.35 1028.39 1028.36 1028.53 1028.64 1028.61 1028.44 1028.39 1027.98 1027.97 1027.78 1027.63 1027.15 1026.67 1026.45 1026.15 1025.74 1025.35 1025.29 1024.86 1024.02 1024.15 1023.94 1023.91 1023.86 1023.81 1024.01 1023.89 1023.92 1024.03 1024.11 1024.31 1024.27 1024.38 1024.39
1025.39 1026.10 1026.82 1027.30 1027.56 1027.88 1028.16 1028.37 1028.53 1028.64 1028.65 1028.84 1028.91 1028.85 1028.75 1028.59 1028.35 1028.35 1028.03 1027.98 1027.41 1027.30 1027.02 1026.63 1026.31 1025.82 1025.82 1025.56 1024.67 1024.71 1024.59 1024.51 1024.56 1024.52 1024.63 1024.58 1024.61 1024.58 1024.63 1024.52 1024.81 1024.66 1024.59
1025.21 1025.86 1026.48 1026.98 1027.43 1027.87 1028.29 1028.52 1028.61 1028.78 1028.98 1029.15 1029.11 1029.01 1028.90 1028.74 1028.69 1028.53 1028.44 1028.36 1027.88 1027.66 1027.81 1027.30 1026.87 1026.60 1026.19 1025.68 1025.36 1025.42 1025.32 1025.42 1025.43 1025.31 1025.39 1025.36 1025.21 1025.22 1025.19 1025.25 1025.41 1025.23 1025.58
1024.93 1025.56 1026.20 1026.74 1027.21 1027.65 1027.89 1027.98 1028.16 1028.75 1029.10 1029.19 1029.33 1029.38 1029.34 1029.30 1029.19 1029.09 1028.97 1028.79 1028.64 1028.46 1028.37 1028.09 1027.75 1027.36 1027.03 1026.52 1026.76 1026.50 1026.02 1026.09 1026.17 1026.18 1026.01 1025.95 1025.99 1025.76 1025.59 1025.95 1025.67 1025.81 1026.24
1024.38 1025.25 1025.77 1026.30 1026.82 1027.21 1027.40 1027.89 1028.36 1028.92 1029.20 1029.45 1029.63 1029.93 1029.86 1029.82 1029.75 1029.51 1029.36 1029.16 1029.06 1028.99 1029.02 1028.69 1028.23 1027.97 1027.75 1027.87 1027.59 1027.63 1027.04 1027.31 1027.26 1026.39 1026.89 1026.39 1026.46 1026.37 1026.42 1026.51 1026.35 1026.45 1026.47
1023.81 1024.65 1025.32 1025.93 1026.50 1026.95 1027.42 1028.03 1028.49 1028.85 1029.16 1029.27 1029.63 1029.99 1030.16 1030.06 1030.08 1030.02 1029.87 1029.76 1029.58 1029.67 1029.44 1029.10 1028.72 1028.51 1028.67 1028.66 1028.14 1028.09 1028.40 1028.34 1028.01 1027.59 1026.99 1027.05 1026.94 1027.14 1026.92 1026.78 1026.81 1027.18 1027.49
1023.45 1024.33 1025.01 1025.68 1026.26 1026.76 1027.41 1027.83 1028.19 1028.45 1028.71 1029.18 1029.60 1029.87 1030.11 1030.24 1030.19 1030.13 1030.16 1030.15 1030.05 1029.95 1029.80 1029.73 1029.67 1029.51 1029.24 1029.11 1029.01 1029.07 1028.84 1028.76 1028.79 1028.55 1028.17 1028.35 1028.18 1028.06 1027.77 1027.55 1027.87 1028.06 1028.12
1023.05 1023.98 1024.72 1025.46 1026.06 1026.53 1027.03 1027.34 1027.72 1028.24 1028.81 1029.37 1029.69 1029.87 1030.00 1030.18 1030.37 1030.29 1030.28 1030.43 1030.52 1030.45 1030.36 1030.27 1030.08 1029.77 1029.57 1029.58 1029.72 1029.75 1029.83 1029.88 1030.01 1029.71 1029.60 1029.59 1029.48 1028.69 1028.06 1028.09 1028.37 1028.56 1028.81
Thickness
5675 5674 5674 5677 5680 5683 5686 5689 5692 5695 5697 5700 5704 5706 5708 5710 5713 5714 5718 5722 5722 5719 5720 5718 5719 5719 5717 5716 5717 5717 5717 5716 5715 5719 5720 5720 5720 5721 5722 5723 5723 5724 5723
5673 5674 5673 5675 5677 5680 5684 5687 5690 5692 5695 5697 5701 5704 5707 5709 5711 5714 5717 5720 5720 5719 5718 5717 5717 5716 5716 5716 5715 5716 5718 5718 5715 5715 5718 5720 5719 5719 5720 5720 5720 5720 5720
5671 5672 5671 5673 5675 5677 5679 5683 5686 5689 5692 5695 5697 5701 5705 5706 5708 5711 5714 5717 5718 5718 5717 5716 5714 5714 5714 5715 5715 5717 5719 5720 5719 5720 5717 5720 5718 5718 5719 5718 5718 5718 5718
5669 5669 5668 5670 5673 5676 5678 5681 5684 5687 5689 5692 5695 5698 5701 5704 5706 5708 5711 5713 5716 5717 5717 5715 5714 5714 5713 5713 5714 5717 5718 5718 5719 5720 5718 5718 5717 5716 5717 5717 5717 5716 5716
5667 5667 5667 5669 5672 5674 5677 5679 5681 5684 5686 5688 5691 5694 5697 5700 5702 5706 5707 5710 5712 5714 5714 5714 5713 5714 5713 5712 5712 5715 5717 5718 5719 5717 5715 5715 5715 5715 5714 5714 5714 5714 5714
5666 5666 5666 5668 5670 5672 5674 5677 5678 5679 5682 5685 5687 5689 5691 5695 5698 5702 5704 5706 5708 5710 5711 5712 5711 5712 5711 5711 5711 5712 5716 5717 5716 5714 5713 5711 5713 5713 5712 5712 5712 5711 5712
5665 5666 5667 5668 5670 5672 5672 5674 5676 5678 5680 5682 5684 5685 5687 5691 5696 5697 5699 5701 5704 5707 5708 5710 5710 5709 5709 5709 5710 5712 5712 5713 5713 5712 5710 5709 5709 5710 5710 5710 5709 5707 5707
5665 5665 5665 5667 5668 5670 5671 5672 5674 5676 5678 5679 5680 5681 5683 5687 5690 5692 5694 5696 5699 5703 5704 5706 5707 5706 5706 5706 5707 5709 5710 5710 5711 5710 5708 5707 5706 5706 5706 5707 5706 5704 5704
5665 5665 5666 5666 5668 5669 5669 5670 5672 5673 5675 5677 5678 5679 5681 5683 5686 5687 5689 5692 5695 5698 5701 5702 5704 5704 5704 5703 5704 5706 5708 5709 5709 5707 5705 5704 5704 5703 5702 5701 5701 5702 5700
5665 5665 5665 5666 5666 5668 5669 5669 5670 5671 5674 5675 5676 5677 5678 5679 5682 5684 5686 5688 5691 5693 5695 5698 5700 5701 5702 5701 5701 5702 5705 5705 5705 5703 5702 5699 5700 5699 5698 5697 5697 5697 5696
5663 5663 5663 5664 5664 5666 5667 5667 5668 5669 5671 5672 5673 5674 5675 5676 5679 5682 5684 5685 5687 5689 5690 5693 5696 5697 5699 5699 5698 5698 5700 5701 5702 5698 5697 5695 5695 5695 5694 5693 5692 5691 5692
5661 5660 5661 5661 5661 5663 5663 5664 5664 5664 5665 5667 5669 5670 5673 5673 5675 5677 5679 5681 5683 5685 5687 5688 5690 5692 5694 5694 5695 5695 5696 5697 5697 5694 5691 5690 5689 5689 5688 5688 5687 5686 5686
5660 5658 5657 5657 5658 5658 5659 5660 5661 5662 5662 5662 5665 5666 5669 5670 5672 5673 5675 5678 5679 5680 5682 5683 5684 5685 5686 5688 5690 5691 5691 5694 5693 5689 5687 5685 5684 5683 5682 5681 5681 5681 5680
5658 5655 5654 5654 5654 5655 5656 5655 5657 5657 5657 5659 5660 5660 5662 5664 5667 5669 5671 5672 5674 5674 5676 5678 5679 5680 5681 5682 5684 5686 5687 5687 5685 5685 5681 5680 5678 5677 5675 5674 5674 5674 5674
5656 5652 5650 5651 5651 5651 5653 5653 5654 5652 5653 5654 5655 5657 5658 5659 5661 5663 5665 5666 5668 5668 5671 5673 5675 5676 5678 5677 5678 5679 5680 5678 5679 5678 5676 5674 5671 5670 5670 5668 5666 5666 5666
5655 5652 5650 5649 5649 5649 5648 5647 5647 5646 5648 5650 5651 5652 5652 5654 5655 5657 5658 5658 5660 5661 5664 5667 5669 5670 5673 5672 5673 5673 5671 5670 5670 5669 5668 5669 5664 5663 5661 5662 5660 5658 5657
5654 5651 5648 5646 5646 5646 5646 5644 5643 5643 5643 5644 5643 5645 5645 5647 5647 5649 5651 5651 5654 5656 5656 5659 5662 5663 5665 5667 5667 5666 5666 5663 5662 5662 5661 5659 5658 5656 5653 5652 5652 5651 5649
5653 5648 5646 5644 5642 5642 5641 5641 5639 5639 5639 5639 5639 5638 5639 5639 5641 5642 5644 5643 5645 5649 5649 5652 5654 5655 5655 5657 5659 5660 5659 5659 5655 5654 5652 5653 5648 5647 5645 5643 5641 5643 5642
5650 5645 5642 5640 5638 5637 5636 5635 5634 5634 5635 5633 5632 5633 5633 5632 5635 5634 5635 5635 5636 5640 5642 5643 5645 5647 5646 5648 5655 5652 5652 5650 5649 5647 5644 5643 5642 5639 5636 5633 5633 5632 5633
5647 5643 5638 5636 5634 5632 5631 5629 5629 5628 5628 5626 5627 5626 5626 5627 5628 5627 5629 5628 5631 5631 5632 5634 5635 5638 5637 5638 5646 5644 5643 5641 5638 5637 5634 5633 5631 5631 5628 5627 5622 5622 5623
5643 5640 5636 5633 5631 5628 5626 5623 5623 5622 5622 5620 5621 5620 5621 5621 5621 5621 5621 5620 5623 5623 5620 5622 5625 5627 5629 5632 5634 5632 5631 5629 5628 5627 5624 5622 5622 5620 5620 5616 5613 5613 5609
5640 5636 5633 5630 5627 5625 5623 5623 5622 5619 5616 5615 5613 5612 5612 5611 5611 5610 5611 5612 5612 5612 5611 5612 5613 5615 5617 5620 5616 5618 5623 5620 5617 5615 5614 5613 5610 5610 5610 5604 5605 5603 5597
5637 5632 5630 5626 5623 5621 5619 5616 5613 5610 5607 5605 5604 5601 5600 5599 5599 5601 5601 5602 5602 5601 5600 5601 5604 5604 5604 5602 5603 5603 5610 5605 5600 5608 5602 5605 5602 5600 5598 5594 5592 5590 5587
5634 5630 5627 5622 5618 5614 5611 5607 5603 5601 5598 5598 5596 5593 5591 5590 5589 5589 5590 5590 5591 5589 5591 5592 5594 5595 5593 5591 5596 5595 5591 5588 5590 5595 5597 5594 5594 5590 5587 5585 5583 5577 5572
5630 5624 5620 5615 5611 5607 5604 5601 5597 5596 5593 5591 5588 5586 5584 5582 5581 5581 5580 5580 5580 5580 5580 5580 5580 5581 5583 5583 5583 5581 5583 5582 5579 5581 5581 5576 5575 5575 5575 5573 5569 5566 5562
5624 5617 5612 5607 5603 5600 5598 5596 5593 5589 5584 5580 5577 5576 5575 5574 5572 5571 5570 5569 5568 5569 5569 5569 5570 5573 5574 5573 5570 5569 5568 5567 5564 5564 5565 5563 5559 5563 5565 5562 5558 5555 5551